sat.trackr.live / text

‹ back to catalog

STARLINK-35899

NORAD 66497 · 2025-263N

PAYLOAD ACTIVE UNKNOWN

§ Identity

Operator
Country
US
Launch date
2025-11-15
Launch site
AFETR
Launch vehicle
Mass (kg)
RCS (m²)

Purposes: comms

External: N2YO · Heavens-Above · Gunter

§ Orbital elements

Epoch: 2026-09-20T21:09:25.130304Z

Period
94.27 min
Inclination
42.9998°
Eccentricity
0.0001489
Mean motion
15.27583636 rev/d
Perigee alt
482.0 km
Apogee alt
484.1 km
Semi-major
6,861.2 km
B*
2.8030e-4
RAAN
328.1223°
Arg perigee
271.8995°
Mean anomaly
88.1686°
Rev number
4,875

§ Raw data

STARLINK-358991 66497U 25263N   26263.88154086  .00007460  00000+0  28030-3 0  99912 66497  42.9998 328.1223 0001489 271.8995  88.1686 15.27583636 48756

JSON: /api/v1/satellites/66497 · /tle

For live sub-satellite position, see the globe view (requires WebGL).

§ Visibility from observer

Set your observer location to see the next 7 days of passes ≥ 10°. The values pass through the URL so the page stays shareable.

No JS? Fill the form by hand. The geolocation button needs JavaScript.